Location: Altenhof
(50.2418°N, 10.8789°E)
Time: 10:06:32
(UTC+00:00)

ATLAS 2AS CENTAUR R/B - Pass Details

Date: 18 February 2020
Orbit: 929 x 1283 km, 63.7° (Epoch: 03 April)

Event Time Altitude Azimuth Distance (km) Brightness Sun altitude
Exits shadow 03:26:52 20° 323° (NW) 2,551 4.5 -28.6°
Maximum altitude 03:30:59 31° 9° (N) 2,013 4.3 -28.0°
Drops below altitude 10° 03:37:34 10° 70° (ENE) 3,108 6.1 -27.0°
Sets 03:40:37 0° 80° (E) 4,016 7.0 -26.5°
